[[{"header":{"parameterUnit":"m.s-1","parameterCategory":1,"la1":30.2991,"la2":30.254,"lo1":-89.0895,"lo2":-89.0444,"dy":0.0017,"dx":0.0017,"nx":28,"ny":28,"refTime":"2024-05-26T21:00:00:Z","depth":0,"parameterNumber":2,"parameterNumberName":"U-component_of_WINDS"},"data":[0,0,0,0,0,0,0,0,0,0,0,0,0,0,0,0,0,0,0,0,0,0,0,0,0,0,0,0,0,0,0,0,0,0,0,0,0,0,0,0,0,0,0,0,0,0,0,0,0,0,0,0,0,0,0,0,0,0,2.4654,2.4654,0,2.4731,2.4732,2.4733,2.4695,2.4693,2.4691,2.4689,2.477,2.4774,2.4778,0,0,0,0,0,0,0,0,0,0,0,0,0,2.4474,2.4478,2.4654,2.4655,2.4656,2.4731,2.4732,2.4733,2.4695,2.4693,2.4691,2.4688,2.4769,2.4774,2.4779,0,0,0,0,0,0,0,0,0,0,0,0,0,2.4552,2.4479,2.4653,2.4646,2.4646,2.4731,2.4732,2.4733,2.4696,2.4693,2.469,2.4687,2.4768,2.4773,2.4779,2.4877,0,0,2.4798,2.4801,0,0,0,0,0,0,0,0,2.4548,2.4559,2.4646,2.4646,2.4647,2.47,2.4699,2.4782,2.4697,2.4677,2.4689,2.4686,2.475,2.4757,2.4778,2.4881,2.4884,2.4798,2.4802,2.4805,2.4806,0,0,0,0,0,0,0,2.4542,2.4555,2.4684,2.4647,2.4648,2.4639,2.4647,2.4714,2.4729,2.4678,2.4676,2.4685,2.4749,2.4773,2.478,2.4886,2.4798,2.4804,2.4807,2.481,2.5072,2.5075,0,0,0,0,0,0,2.4537,2.4551,2.4682,2.4687,2.4589,2.4645,2.4653,2.4686,2.4728,2.4732,2.4688,2.4683,2.4764,2.4773,2.4783,2.4899,2.4805,2.481,2.4814,2.5068,2.5072,2.5076,0,0,0,0,0,0,2.4533,2.4549,2.4679,2.4618,2.4634,2.4651,2.4688,2.4689,2.4712,2.4736,2.4738,2.4709,2.4762,2.4774,2.4854,2.4901,2.4813,2.4819,2.5064,2.5069,2.5074,2.5133,0,0,0,0,0,0,2.4528,2.4548,2.4585,2.4619,2.4637,2.4748,2.4691,2.4693,2.4723,2.4717,2.4756,2.4759,2.476,2.4845,2.486,2.4908,2.4823,2.506,2.5067,2.5072,2.5127,2.5139,2.515,0,0,0,0,0,2.4522,2.4599,2.4587,2.4603,2.4684,2.4751,2.4761,2.476,2.4727,2.4764,2.4779,2.4758,2.4894,2.4853,2.487,2.4921,2.5057,2.5065,2.5072,2.5122,2.5137,2.515,0,0,0,0,0,0,2.457,2.4603,2.459,2.4681,2.4713,2.4744,2.4791,2.4777,2.482,2.4813,2.4811,2.482,2.4902,2.4919,2.4873,2.5017,2.497,2.4981,2.5002,2.5017,2.5029,2.5022,2.4828,0,0,0,0,0,2.4591,2.4643,2.4669,2.4746,2.4763,2.4775,2.4804,2.48,2.4834,2.4848,2.4869,2.4903,2.4953,2.4986,2.5034,2.5129,2.5137,2.5173,2.5184,2.5194,2.5203,2.5254,2.527,2.51,2.51,2.51,0,0,2.4636,2.466,2.4693,2.4756,2.4781,2.4835,2.4787,2.4845,2.4885,2.4857,2.4933,2.4949,2.4987,2.5075,2.5115,2.5092,2.5252,2.5203,2.521,2.5215,2.5264,2.528,2.5294,2.5105,2.5105,2.5104,0,0,2.4743,2.4767,2.4834,2.4859,2.4897,2.4904,2.492,2.4954,2.4964,2.504,2.502,2.5067,2.5154,2.5182,2.5207,2.5325,2.5307,2.5341,2.5401,2.5451,2.5465,2.5476,2.5518,2.5533,2.535,2.535,2.5351,0,2.4794,2.4873,2.487,2.493,2.4959,2.4935,2.5002,2.5028,2.508,2.51,2.5074,2.5182,2.5206,2.5299,2.5328,2.535,2.5368,2.5336,2.5463,2.5475,2.5486,2.5525,2.5541,2.5354,2.5354,2.5353,2.5353,0,2.4932,2.4988,2.5037,2.5087,2.5121,2.5185,2.5191,2.5227,2.522,2.523,2.5308,2.5336,2.5388,2.541,2.5405,2.5503,2.5488,2.5463,2.5415,2.5506,2.5543,2.5558,2.536,2.5358,2.5357,2.5356,0,0,2.5072,2.5119,2.5138,2.516,2.52,2.5243,2.5305,2.5356,2.5386,2.5423,2.5475,2.5549,2.5525,2.5554,2.5552,2.5596,2.5686,2.5565,2.5566,2.5586,2.5796,2.5814,2.5831,2.5675,2.5678,2.568,2.5792,0,2.5182,2.5291,2.529,2.5391,2.5442,2.542,2.5475,2.5505,2.5516,2.5562,2.5574,2.5626,2.5592,2.5609,2.5651,2.5666,2.5728,2.5658,2.5723,2.5726,2.5714,2.5851,2.587,2.5975,2.5807,2.5809,2.5811,0,2.5325,2.5365,2.5471,2.5503,2.5524,2.5573,2.5619,2.5663,2.5697,2.5702,2.5734,2.5725,2.5789,2.574,2.5828,2.578,2.5807,2.5819,2.5823,2.5828,2.5773,2.5859,2.6008,2.6023,2.5834,2.5832,2.583,0,2.5415,2.5496,2.557,2.5589,2.5629,2.5664,2.5682,2.5713,2.5744,2.5784,2.5804,2.5852,2.5878,2.5915,2.5919,2.5884,2.6007,2.5959,2.6013,2.6013,2.604,2.6038,2.6194,2.6058,2.6058,2.6058,2.6058,0,2.5537,2.5603,2.5611,2.5656,2.5728,2.5727,2.5799,2.5814,2.5842,2.589,2.5875,2.592,2.5923,2.597,2.5973,2.6045,2.6057,2.6063,2.6063,2.6064,2.6063,2.6081,2.6073,2.6062,2.6061,2.606,2.606,0,2.565,2.5658,2.5737,2.5768,2.5777,2.5829,2.5856,2.5899,2.5908,2.5969,2.5983,2.5999,2.6053,2.606,2.6124,2.6126,2.6212,2.6205,2.62,2.6199,2.6252,2.6247,2.6424,2.6447,2.6298,2.6299,2.63,0,2.5727,2.5777,2.5813,2.5843,2.5863,2.5913,2.5944,2.5945,2.5977,2.602,2.6058,2.611,2.6152,2.624,2.6257,2.6305,2.6298,2.6357,2.6306,2.6305,2.6298,2.6295,2.63,2.6367,2.6369,2.637,2.6371,0,2.5863,2.5864,2.5909,2.5955,2.5992,2.6028,2.6063,2.6089,2.6094,2.6132,2.6186,2.6219,2.6283,2.6335,2.6383,2.6402,2.6388,2.6387,2.6402,2.6403,2.6398,2.6401,2.6227,2.6383,2.6382,2.6381,2.638,2.638,2.5959,2.6002,2.6034,2.6084,2.611,2.6142,2.6184,2.6199,2.6244,2.6296,2.6294,2.6354,2.6387,2.645,2.6472,2.6519,2.65,2.6522,2.6527,2.6532,2.6537,2.6391,2.6528,2.6528,2.6528,2.6527,2.6527,0,2.6093,2.6113,2.6159,2.6207,2.6246,2.6229,2.6266,2.63,2.6353,2.6385,2.6426,2.6489,2.654,2.656,2.661,2.6644,2.6638,2.6656,2.6654,2.6658,2.6552,2.6534,2.666,2.666,2.666,2.666,2.666,2.666,2.6167,2.6238,2.6244,2.6328,2.6347,2.6405,2.6428,2.6458,2.6483,2.6553,2.6595,2.6608,2.6636,2.6687,2.6732,2.6737,2.6756,2.6777,2.6779,2.6679,2.6666,2.6653,2.6636,2.6781,2.6781,2.6881,2.6882,2.6882]},{"header":{"parameterUnit":"m.s-1","parameterCategory":1,"la1":30.2991,"la2":30.254,"lo1":-89.0895,"lo2":-89.0444,"dy":0.0017,"dx":0.0017,"nx":28,"ny":28,"refTime":"2024-05-26T21:00:00:Z","depth":0,"parameterNumber":3,"parameterNumberName":"V-component_of_WINDS"},"data":[0,0,0,0,0,0,0,0,0,0,0,0,0,0,0,0,0,0,0,0,0,0,0,0,0,0,0,0,0,0,0,0,0,0,0,0,0,0,0,0,0,0,0,0,0,0,0,0,0,0,0,0,0,0,0,0,0,0,3.5458,3.5459,0,3.5596,3.5598,3.5599,3.5611,3.5609,3.5608,3.5606,3.5746,3.5751,3.5756,0,0,0,0,0,0,0,0,0,0,0,0,0,3.5202,3.5207,3.5457,3.5459,3.5461,3.5596,3.5598,3.5599,3.5611,3.5609,3.5607,3.5606,3.5745,3.5751,3.5757,0,0,0,0,0,0,0,0,0,0,0,0,0,3.5324,3.5208,3.5457,3.5483,3.5487,3.5595,3.5598,3.56,3.5611,3.5609,3.5607,3.5605,3.5743,3.575,3.5758,3.585,0,0,3.5781,3.5784,0,0,0,0,0,0,0,0,3.5317,3.5333,3.5477,3.5481,3.5486,3.5584,3.5559,3.5684,3.5612,3.5564,3.5606,3.5604,3.5694,3.5705,3.5736,3.5856,3.5862,3.5782,3.5786,3.579,3.5792,0,0,0,0,0,0,0,3.5309,3.5327,3.5512,3.5479,3.5485,3.5487,3.5502,3.5583,3.564,3.5568,3.5569,3.5585,3.5696,3.5729,3.574,3.5864,3.5782,3.5788,3.5793,3.5796,3.6068,3.607,0,0,0,0,0,0,3.5295,3.532,3.5508,3.5516,3.5394,3.5494,3.551,3.5555,3.5639,3.565,3.5587,3.5585,3.5717,3.5731,3.5745,3.5859,3.579,3.5797,3.5801,3.6065,3.6068,3.6071,0,0,0,0,0,0,3.529,3.5312,3.5502,3.5419,3.5443,3.55,3.555,3.5558,3.5592,3.5653,3.5663,3.5611,3.5716,3.5734,3.5824,3.5864,3.58,3.5807,3.6062,3.6066,3.607,3.6088,0,0,0,0,0,0,3.5283,3.531,3.5346,3.542,3.5448,3.5579,3.5552,3.5563,3.5605,3.5604,3.5678,3.5688,3.5715,3.5812,3.5831,3.5873,3.5813,3.6059,3.6064,3.6069,3.6084,3.6092,3.6098,0,0,0,0,0,3.5273,3.5344,3.5347,3.537,3.5493,3.5582,3.5598,3.5628,3.5608,3.5645,3.5684,3.5686,3.5856,3.5821,3.5843,3.5888,3.6056,3.6063,3.6068,3.608,3.609,3.6098,0,0,0,0,0,0,3.5273,3.5355,3.5359,3.5456,3.5512,3.5584,3.563,3.5637,3.5699,3.5696,3.573,3.5747,3.5836,3.5871,3.583,3.5982,3.5954,3.5965,3.5956,3.5966,3.5973,3.5963,3.582,0,0,0,0,0,3.5284,3.535,3.5417,3.5496,3.5524,3.5572,3.5612,3.5631,3.569,3.5713,3.576,3.5817,3.5883,3.5926,3.5991,3.6089,3.6105,3.613,3.6137,3.6143,3.6152,3.6208,3.622,3.6091,3.6091,3.609,0,0,3.5308,3.5361,3.54,3.5498,3.5543,3.561,3.5592,3.5663,3.5713,3.5724,3.5812,3.5848,3.5914,3.6009,3.6053,3.6041,3.6191,3.6151,3.6155,3.6161,3.6215,3.6227,3.6238,3.6095,3.6094,3.6093,0,0,3.5386,3.5432,3.5504,3.555,3.562,3.5652,3.5669,3.574,3.5765,3.5854,3.5864,3.5923,3.6037,3.6084,3.6123,3.6219,3.6223,3.6239,3.6278,3.6332,3.6342,3.6351,3.6387,3.6399,3.6248,3.6248,3.6248,0,3.5407,3.5508,3.554,3.5611,3.5654,3.5668,3.5741,3.5784,3.5871,3.59,3.5885,3.6029,3.6074,3.6181,3.6205,3.6235,3.6256,3.6231,3.6338,3.6348,3.6357,3.6391,3.6404,3.6249,3.6249,3.6249,3.6249,0,3.5531,3.5601,3.5651,3.5736,3.5784,3.5856,3.5898,3.5943,3.5958,3.5991,3.6082,3.6137,3.6214,3.624,3.6254,3.6349,3.634,3.6331,3.6304,3.637,3.6403,3.6416,3.6252,3.6251,3.6251,3.625,0,0,3.5612,3.5714,3.5732,3.5771,3.585,3.5904,3.5977,3.6053,3.6091,3.6151,3.6213,3.6309,3.6302,3.6346,3.6366,3.6413,3.6488,3.6399,3.6401,3.6414,3.6597,3.6603,3.6618,3.6491,3.6493,3.6495,3.6592,0,3.57,3.583,3.5861,3.5973,3.6039,3.6053,3.6116,3.6171,3.6204,3.6265,3.6301,3.6369,3.6354,3.6381,3.6428,3.6469,3.6525,3.6462,3.6549,3.6552,3.6533,3.6635,3.6642,3.6731,3.6604,3.6607,3.6608,0,3.5819,3.5883,3.6002,3.6073,3.6101,3.6158,3.623,3.6288,3.635,3.6371,3.6421,3.6436,3.6513,3.6481,3.6587,3.6544,3.6581,3.6606,3.661,3.662,3.6585,3.6649,3.6759,3.6773,3.6629,3.6627,3.6626,0,3.5868,3.5983,3.607,3.6103,3.6187,3.6227,3.6264,3.6324,3.6368,3.6431,3.646,3.6531,3.657,3.6624,3.6658,3.6632,3.6762,3.6733,3.6781,3.6781,3.6809,3.6807,3.6928,3.6831,3.6831,3.6831,3.683,0,3.5963,3.6036,3.6093,3.6146,3.6228,3.6262,3.6342,3.6379,3.6433,3.6494,3.6509,3.6566,3.6607,3.6669,3.6696,3.678,3.6797,3.6817,3.6823,3.6816,3.6814,3.6842,3.6837,3.6834,3.6833,3.6833,3.6832,0,3.6032,3.6073,3.6168,3.6241,3.6261,3.6318,3.638,3.6432,3.6466,3.6543,3.6563,3.6616,3.669,3.6729,3.6821,3.6839,3.6934,3.6937,3.6914,3.6917,3.6964,3.6959,3.7108,3.7129,3.7017,3.7018,3.7019,0,3.609,3.6147,3.6226,3.6268,3.6306,3.6373,3.6419,3.6455,3.6502,3.6578,3.6621,3.6696,3.6758,3.6876,3.6923,3.6994,3.6999,3.7046,3.7009,3.7001,3.7001,3.6998,3.7004,3.7052,3.7053,3.7054,3.7055,0,3.619,3.6208,3.6273,3.6346,3.64,3.6459,3.6517,3.655,3.6596,3.6647,3.6724,3.6772,3.6867,3.6942,3.7017,3.7054,3.7063,3.7066,3.7081,3.7075,3.706,3.707,3.6932,3.7063,3.7062,3.7061,3.7061,3.7061,3.6256,3.6307,3.6372,3.6444,3.6492,3.6546,3.6599,3.664,3.6705,3.6786,3.6803,3.6884,3.6946,3.7048,3.7088,3.7152,3.7142,3.7164,3.7169,3.7175,3.7177,3.7049,3.7165,3.7165,3.7165,3.7165,3.7164,0,3.6358,3.64,3.6466,3.6548,3.6605,3.6608,3.6673,3.672,3.6792,3.6849,3.6911,3.6999,3.7072,3.7125,3.7199,3.724,3.7246,3.7258,3.7256,3.7265,3.7181,3.7161,3.7253,3.7253,3.7253,3.7253,3.7253,3.7253,3.6417,3.6505,3.6531,3.6642,3.6684,3.6764,3.6801,3.6851,3.6897,3.6996,3.7057,3.7091,3.7147,3.7225,3.7293,3.7306,3.7333,3.7346,3.736,3.728,3.7271,3.7262,3.7243,3.7351,3.7351,3.7439,3.744,3.744]}]]